Regional Weather Roundup
Issued by NWS Austin/San Antonio, TX

Home | Current Version | Previous Version | Text Only | Print | Product List | Glossary On
Versions: 1 2 3 4 5 6 7 8 9 10 11 12 13 14 15 16 17 18 19 20 21 22 23 24 25 26 27 28 29 30 31 32 33 34 35 36 37 38 39 40 41 42 43 44 45 46 47 48 49 50
000
ASUS44 KEWX 170902
RWREWX
SOUTH TEXAS REGIONAL WEATHER ROUNDUP
NATIONAL WEATHER SERVICE AUSTIN/SAN ANTONIO TX
400 AM CDT THU AUG 17 2017

NOTE: "FAIR" INDICATED FEW OR NO CLOUDS BELOW 12,000 FEET WITH NO
SIGNIFICANT WEATHER AND/OR OBSTRUCTIONS TO VISIBILITY.

* - THESE STATIONS ARE NOT NWS OR FAA STATIONS...AND ARE NOT SUBJECT
    TO NWS AND FAA QUALITY CONTROL.

TXZ171-172-183>190-171000-
TEXAS HILL COUNTRY AND EDWARDS PLATEAU

CITY           SKY/WX    TMP DP  RH WIND       PRES   REMARKS
JUNCTION       CLOUDY    80  74  81 S5        30.02R
*LLANO         CLOUDY    81  75  83 CALM      30.03R
BURNET         CLOUDY    80  74  81 S7        30.02
*HORSESHOE BAY CLOUDY    81  74  77 S7        29.99S
*KERRVILLE     CLOUDY    79  75  88 S9        30.03R
*FREDERICKSBRG CLOUDY    79  71  76 S9        30.03R
*ROCKSPRINGS   NOT AVBL
*BOERNE STAGE  CLOUDY    77  72  83 S12       30.02S
*CASTROVILLE   CLEAR     80  73  79 S7        29.99S
HONDO          MOCLDY    81  75  82 S8        29.97F
*UVALDE        RAIN      81  72  73 SE7       29.97F VSB 1/4
DEL RIO        CLOUDY    82  70  66 SE6       29.92F
LAUGHLIN AFB   NOT AVBL
CARRIZO SPRGS  PTCLDY    82  70  65 S15       29.92F
*EAGLE PASS    NOT AVBL
$$

TXZ173-191>194-202-209-217>225-228-171000-
CENTRAL AND SOUTH CENTRAL TEXAS

CITY           SKY/WX    TMP DP  RH WIND       PRES   REMARKS
GEORGETOWN     MOCLDY    82  75  79 S15       30.00S
AUSTIN/BERGSTM PTCLDY    82  77  84 S12       29.99R HX  90
AUSTIN/MABRY   CLOUDY    82  75  79 S7        30.00R
*AUSTIN/EXEC   CLOUDY    81  75  83 S8        30.00R
*LAGO VISTA    CLOUDY    81  74  80 S10G16    30.02S
SAN MARCOS     NOT AVBL
NEW BRAUNFELS  CLOUDY    81  76  84 S12       29.97R
RANDOLPH AFB   MOCLDY    80  77  92 S8        29.99R
PT SAN ANTONIO PTCLDY    80  74  84 S10       29.96S
SAN ANTONIO    PTCLDY    80  73  79 S13       29.99R
STINSON FIELD  MOCLDY    82  74  76 S8        29.96S
*LA GRANGE     CLOUDY    83  79  87 S8        29.97R HX  95
*GIDDINGS      MOCLDY    82  75  81 SW10      30.00R
*GONZALES      CLOUDY    82  80  91 S7        29.98R HX  94
$$

TXZ163>164-176>182-195>201-210>213-226-227-235-171000-
SOUTHEAST TEXAS

CITY           SKY/WX    TMP DP  RH WIND       PRES   REMARKS
COLLEGE STN    CLOUDY    82  78  88 S8        29.99R HX  91
*BRYAN         CLOUDY    81  78  90 S10       30.01R
*CALDWELL      NOT AVBL
*CROCKETT      MOCLDY    79  75  89 CALM      30.03S
*BRENHAM       CLOUDY    82  80  94 S6        30.00S HX  92
HUNTSVILLE     MOCLDY    83  76  79 S10       30.00R HX  91
CONROE         CLOUDY    83  78  85 S9        30.00R HX  93
HOUSTON BUSH   PTCLDY    84  78  82 S9        30.00R HX  95
HOUSTON HOBBY  PTCLDY    85  77  77 S6        29.99S HX  95
*HOUSTON SW AP PTCLDY    79  77  92 CALM      30.01R
PEARLAND       CLEAR     86  78  77 S7        30.01R HX  98
HOUSTON HOOKS  CLOUDY    83  79  88 S8        30.00R HX  94
ELLINGTON FLD  NOT AVBL
SUGAR LAND     CLOUDY    83  79  88 S8        29.99S HX  94
*HOUSTON EXEC  CLEAR     79  79 100 S5        30.01R FOG
*CLEVELAND MUN PTCLDY    78  77  95 CALM      30.01R FOG
*WHARTON       CLEAR     81  76  84 S7        30.00R
*COLUMBUS      FAIR      80  78  93 S5        30.00R
*EAGLE LAKE    MOSUNNY   82  80  95 S3        29.99R HX  92
$$

TXZ214>216-236>238-171000-
THE UPPER TEXAS COAST

CITY           SKY/WX    TMP DP  RH WIND       PRES   REMARKS
*ORANGE        CLOUDY    85  79  84 S10       30.02S HX  97
PORT ARTHUR    CLOUDY    83  78  85 S8        30.00R HX  93
GALVESTON      CLOUDY    86  79  79 S20G25    30.01S HX  99
ANGLETON       CLOUDY    84  78  82 S8        30.00R HX  95
*BAY CITY      CLEAR     83  78  83 S10       29.99S HX  93
PALACIOS       PTCLDY    83  77  82 S16G29    29.98S HX  92
$$

TXZ229>234-239>247-171000-
TEXAS COASTAL BEND AND RIO GRANDE PLAINS

CITY           SKY/WX    TMP DP  RH WIND       PRES   REMARKS
VICTORIA       CLOUDY    82  78  88 S12       29.98S HX  91
*BEEVILLE      PTCLDY    82  82 100 S9        29.97S HX  97
ROCKPORT       PTCLDY    83  78  85 S14G20    29.97S HX  93
*PORT ARANSAS  CLOUDY    83  78  85 S14G20    29.97F HX  93
*PORT LAVACA   PTCLDY    82  77  84 S8G16     29.98S HX  91
*INGLESIDE     MOCLDY    85  80  84 MISG      29.97S HX  98
CORPUS CHRISTI PTCLDY    82  79  90 S12       29.96F HX  92
CORPUS NAS     MOCLDY    84  80  88 S16G24    29.97F HX  97
*ROBSTOWN      CLEAR     84  77  80 S15       29.97S HX  93
ALICE          MOCLDY    81  76  84 S9        29.96S
KINGSVILLE NAS CLEAR     82  79  90 S12       29.96F HX  92
COTULLA        PTCLDY    82  73  74 SE10      29.94F
*FAITH RANCH   CLEAR     84  72  65 SE14G21   29.93S
LAREDO         NOT AVBL
$$

TXZ248>255-171000-
DEEP SOUTH TEXAS

CITY           SKY/WX    TMP DP  RH WIND       PRES   REMARKS
BROWNSVILLE    CLOUDY    81  78  91 S10       29.97F
PORT ISABEL    CLOUDY    83  78  85 S10       29.96F HX  93
*SOUTH PADRE   NOT AVBL
HARLINGEN      PTCLDY    82  79  90 S13       29.96S HX  92
*HEBBRONVILLE  CLEAR     80  74  81 S9        29.97F
MCALLEN        PTCLDY    83  77  82 SE14      29.96S HX  92
*WESLACO       PTCLDY    82  76  81 S8        29.95S
FALFURRIAS     PTCLDY    82  77  85 S7        29.96S HX  90
EDINBURG       CLOUDY    84  76  77 S9        29.96F HX  92
*ZAPATA        CLOUDY    83  73  72 SE12      29.93F
$$

TXZ213>215-236>238-242>244-246-247-251-254-255-171000-
CMAN STATIONS

STATION/POSITION TIME  TEMP    WIND        PRES    WAVE
                       AIR SEA DIR/SP/G            HT/PER
                 (UTC) (F)     (DEG/KT/KT) (MB)    (FT/S)
SABINE PASS      0830   86 89  190/ 13/ 18 1017.6
SEA RIM ST PARK  0800   86     190/ 16/ 20 1016.6
NORTH JETTY/GLS  0824      87  170/ 16/ 21 1015.5
EAGLE POINT      0824   86 86  200/ 16/ 22 1015.8
MORGANS POINT    0830   85 87  180/  9/ 13 1015.6
MISSION/ARANSAS  0800          180/ 16     1016.0
PORT O`CONNOR    0824   85     180/ 19/ 25 1014.7
PORT ARANSAS     0800   83 86  160/ 14/ 15 1015.1
MALAQUITE BEACH  0824   83 86  160/ 16/ 18 1014.4
BAFFIN BAY       0824   82 85              1015.1
PORT ISABEL      0824   83 84              1015.0
$$




USA.gov is the U.S. government's official web portal to all federal, state and local government web resources and services.